{"data":{"norad_id":55315,"intl_designator":"2023-010AY","name":"STARLINK-4623","alt_names":[],"object_type":"PAYLOAD","status":"ACTIVE","operator":null,"country":"US","launch_date":"2023-01-19","launch_site_code":"AFWTR","launch_vehicle":null,"mission":null,"orbit_class":"UNKNOWN","rcs_meters":null,"size_class":null,"mass_kg":null,"dimensions":null,"purposes":["comms"],"wikipedia_slug":null,"has_3d_model":false,"image_url":null,"decayed_at":null,"tle_current":{"epoch":"2026-05-25T03:52:27.075072Z","epoch_age_seconds":55131,"freshness":"FRESH","line1":"1 55315U 23010AY  26145.16142448 -.00000091  00000+0  17256-6 0  9990","line2":"2 55315  69.9986 191.6513 0004048 268.1274  91.9421 14.98332144184716","mean_motion":14.98332144,"eccentricity":0.0004048,"inclination_deg":69.9986,"raan_deg":191.6513,"arg_perigee_deg":268.1274,"mean_anomaly_deg":91.9421,"bstar":1.7256e-7,"rev_number":18471,"period_min":96.106861603845,"perigee_km":569.23582541081,"apogee_km":574.86269620756,"semimajor_km":6950.1862608092,"source":"CELESTRAK","updated_at":"2026-05-25T13:38:17.758308Z"}}}